[[{"header":{"parameterUnit":"m.s-1","parameterCategory":1,"la1":30.2991,"la2":30.254,"lo1":-89.0895,"lo2":-89.0444,"dx":0.0017,"dy":0.0017,"nx":28,"ny":28,"refTime":"2022-12-13T15:00:00:Z","depth":0,"parameterNumber":2,"parameterNumberName":"U-component_of_WINDS"},"data":[0,0,0,0,0,0,0,0,0,0,0,0,0,0,0,0,0,0,0,0,0,0,0,0,0,0,0,0,0,0,0,0,0,0,0,0,0,0,0,0,0,0,0,0,0,0,0,0,0,0,0,0,0,0,0,0,0,0,3.2065,3.2067,0,3.2242,3.2244,3.2246,3.2266,3.2264,3.2262,3.2261,3.2442,3.2449,3.2455,0,0,0,0,0,0,0,0,0,0,0,0,0,3.1745,3.1751,3.2065,3.2067,3.2069,3.2242,3.2245,3.2247,3.2266,3.2264,3.2262,3.226,3.244,3.2448,3.2456,0,0,0,0,0,0,0,0,0,0,0,0,0,3.1899,3.1753,3.2065,3.21,3.2105,3.2242,3.2245,3.2248,3.2267,3.2264,3.2261,3.2259,3.2438,3.2447,3.2457,3.2571,0,0,3.2487,3.2491,0,0,0,0,0,0,0,0,3.1891,3.1911,3.2093,3.2098,3.2103,3.2229,3.2198,3.2356,3.2267,3.2205,3.2261,3.2257,3.2374,3.2389,3.2428,3.2579,3.2587,3.2487,3.2493,3.2498,3.25,0,0,0,0,0,0,0,3.188,3.1904,3.2135,3.2095,3.2102,3.2108,3.2126,3.2228,3.2302,3.221,3.2212,3.2233,3.2376,3.2418,3.2432,3.259,3.2487,3.2496,3.2502,3.2506,3.2846,3.2849,0,0,0,0,0,0,3.1863,3.1895,3.213,3.2141,3.1988,3.2115,3.2137,3.2192,3.2301,3.2315,3.2235,3.2233,3.2403,3.2421,3.2439,3.2581,3.2498,3.2507,3.2512,3.2843,3.2847,3.285,0,0,0,0,0,0,3.1856,3.1883,3.2122,3.2018,3.2049,3.2124,3.2185,3.2197,3.2239,3.232,3.2333,3.2264,3.2401,3.2425,3.2538,3.2587,3.2511,3.252,3.2839,3.2844,3.2848,3.2864,0,0,0,0,0,0,3.1846,3.1881,3.1924,3.2019,3.2055,3.2219,3.2188,3.2202,3.2255,3.2255,3.2351,3.2364,3.2401,3.2524,3.2548,3.2599,3.2528,3.2835,3.2841,3.2847,3.286,3.2869,3.2877,0,0,0,0,0,3.1835,3.1921,3.1926,3.1954,3.211,3.2221,3.2242,3.2282,3.2259,3.2304,3.2357,3.2361,3.2578,3.2535,3.2563,3.2617,3.2832,3.284,3.2846,3.2856,3.2867,3.2877,0,0,0,0,0,0,3.183,3.1934,3.1941,3.206,3.2132,3.2224,3.2282,3.2293,3.2372,3.2368,3.2415,3.2437,3.2549,3.2595,3.2545,3.2735,3.2703,3.2716,3.27,3.2712,3.272,3.2707,3.2536,0,0,0,0,0,3.1842,3.1923,3.201,3.2107,3.2143,3.2206,3.2256,3.2282,3.2357,3.2388,3.2449,3.2522,3.2607,3.2662,3.2745,3.2867,3.2889,3.2918,3.2927,3.2933,3.2944,3.3014,3.3028,3.2874,3.2874,3.2874,0,0,3.1869,3.1937,3.1985,3.2108,3.2167,3.225,3.2232,3.232,3.2383,3.2401,3.2512,3.256,3.2646,3.2764,3.2819,3.2806,3.2992,3.2943,3.2947,3.2955,3.3023,3.3037,3.305,3.2879,3.2878,3.2877,0,0,3.1962,3.202,3.2108,3.2167,3.2256,3.2298,3.2319,3.2411,3.2444,3.2556,3.2572,3.2648,3.2792,3.2853,3.2903,3.3021,3.3029,3.3047,3.3092,3.3159,3.3171,3.3182,3.3225,3.324,3.3057,3.3057,3.3057,0,3.1984,3.211,3.2152,3.2241,3.2296,3.2317,3.2407,3.2462,3.2574,3.2611,3.2594,3.2778,3.2837,3.2971,3.3,3.3039,3.3066,3.3036,3.3166,3.3177,3.3188,3.323,3.3246,3.3059,3.3059,3.3058,3.3058,0,3.2134,3.2222,3.2282,3.239,3.2451,3.254,3.2597,3.2654,3.2674,3.2718,3.2834,3.2906,3.3004,3.3037,3.3058,3.3175,3.3164,3.3156,3.3125,3.3204,3.3244,3.326,3.3061,3.3061,3.306,3.306,0,0,3.2226,3.2358,3.2379,3.2429,3.253,3.2599,3.269,3.2786,3.2835,3.2911,3.299,3.3113,3.3107,3.3163,3.3191,3.325,3.3341,3.3235,3.3238,3.3253,3.3476,3.3482,3.3499,3.3347,3.335,3.3352,3.3469,0,3.2331,3.2493,3.2534,3.2673,3.2755,3.2777,3.2857,3.2928,3.2972,3.3048,3.3097,3.3184,3.3169,3.3204,3.3263,3.3317,3.3386,3.3309,3.342,3.3424,3.3398,3.352,3.3526,3.3632,3.3485,3.3488,3.3489,0,3.2474,3.2554,3.2701,3.2793,3.2829,3.2899,3.2992,3.3065,3.3147,3.3175,3.3239,3.3262,3.3358,3.3323,3.3457,3.3404,3.3452,3.3486,3.3491,3.3503,3.3461,3.3536,3.3667,3.3683,3.3514,3.3512,3.3511,0,3.2528,3.2673,3.278,3.2822,3.2931,3.2981,3.3029,3.3107,3.3163,3.3245,3.3282,3.3373,3.3423,3.3494,3.3541,3.3511,3.3673,3.364,3.3699,3.3698,3.3732,3.3729,3.3873,3.3762,3.3762,3.3762,3.3762,0,3.264,3.2729,3.2806,3.2871,3.2973,3.302,3.3119,3.3168,3.3238,3.3315,3.3339,3.3411,3.3469,3.3548,3.3586,3.3692,3.3715,3.3741,3.375,3.3739,3.3735,3.3771,3.3765,3.3766,3.3765,3.3764,3.3764,0,3.2717,3.2772,3.289,3.2985,3.3011,3.3081,3.3162,3.3228,3.3273,3.337,3.3395,3.3467,3.3562,3.3616,3.3736,3.3761,3.388,3.3885,3.3852,3.3856,3.3913,3.3907,3.4085,3.4111,3.3982,3.3983,3.3984,0,3.2785,3.2854,3.2957,3.301,3.3059,3.3144,3.3202,3.3252,3.3311,3.341,3.3464,3.3561,3.3641,3.3792,3.3855,3.3947,3.3955,3.4011,3.3969,3.3956,3.3957,3.3952,3.396,3.4018,3.4019,3.402,3.4021,0,3.29,3.2925,3.3007,3.3099,3.3167,3.3242,3.3317,3.3359,3.3422,3.3487,3.3585,3.3647,3.377,3.3866,3.3964,3.4014,3.4029,3.4034,3.4053,3.4042,3.4021,3.4034,3.3873,3.4029,3.4028,3.4028,3.4027,3.4027,3.2976,3.3039,3.3122,3.3213,3.3275,3.3344,3.3411,3.3465,3.3547,3.3651,3.3676,3.378,3.3861,3.3994,3.4047,3.4129,3.4119,3.4146,3.4153,3.4159,3.4161,3.4007,3.4147,3.4147,3.4146,3.4146,3.4146,0,3.3094,3.3148,3.3232,3.3336,3.3408,3.3415,3.3499,3.3559,3.3649,3.3724,3.3803,3.3916,3.401,3.4081,3.4178,3.423,3.4239,3.4254,3.425,3.4262,3.4164,3.4138,3.4245,3.4245,3.4245,3.4245,3.4244,3.4244,3.3163,3.3271,3.3305,3.3445,3.3499,3.3601,3.3648,3.3713,3.3773,3.3898,3.3977,3.4023,3.4097,3.4199,3.4286,3.4304,3.4339,3.4353,3.4372,3.4279,3.4269,3.4258,3.4235,3.436,3.436,3.4464,3.4465,3.4465]},{"header":{"parameterUnit":"m.s-1","parameterCategory":1,"la1":30.2991,"la2":30.254,"lo1":-89.0895,"lo2":-89.0444,"dx":0.0017,"dy":0.0017,"nx":28,"ny":28,"refTime":"2022-12-13T15:00:00:Z","depth":0,"parameterNumber":3,"parameterNumberName":"V-component_of_WINDS"},"data":[0,0,0,0,0,0,0,0,0,0,0,0,0,0,0,0,0,0,0,0,0,0,0,0,0,0,0,0,0,0,0,0,0,0,0,0,0,0,0,0,0,0,0,0,0,0,0,0,0,0,0,0,0,0,0,0,0,0,-3.7324,-3.7324,0,-3.7348,-3.7348,-3.7348,-3.7308,-3.7306,-3.7305,-3.7304,-3.7325,-3.7326,-3.7328,0,0,0,0,0,0,0,0,0,0,0,0,0,-3.7241,-3.7242,-3.7324,-3.7324,-3.7325,-3.7348,-3.7348,-3.7348,-3.7308,-3.7306,-3.7305,-3.7303,-3.7324,-3.7326,-3.7328,0,0,0,0,0,0,0,0,0,0,0,0,0,-3.7272,-3.7243,-3.7324,-3.7307,-3.7306,-3.7347,-3.7348,-3.7348,-3.7308,-3.7306,-3.7304,-3.7302,-3.7323,-3.7326,-3.7329,-3.7386,0,0,-3.7337,-3.7338,0,0,0,0,0,0,0,0,-3.727,-3.7275,-3.731,-3.7309,-3.7307,-3.7323,-3.7326,-3.7361,-3.7309,-3.7307,-3.7304,-3.7301,-3.7325,-3.7328,-3.7337,-3.7387,-3.7388,-3.7337,-3.7339,-3.734,-3.7341,0,0,0,0,0,0,0,-3.7268,-3.7274,-3.7333,-3.731,-3.7309,-3.7298,-3.73,-3.7333,-3.7327,-3.7307,-3.7304,-3.7308,-3.7324,-3.7334,-3.7337,-3.7389,-3.7337,-3.734,-3.7341,-3.7342,-3.7487,-3.7489,0,0,0,0,0,0,-3.7268,-3.7272,-3.7332,-3.7334,-3.7283,-3.7301,-3.7303,-3.732,-3.7327,-3.7326,-3.731,-3.7306,-3.733,-3.7334,-3.7337,-3.7405,-3.734,-3.7343,-3.7344,-3.7485,-3.7488,-3.749,0,0,0,0,0,0,-3.7267,-3.7274,-3.7332,-3.7302,-3.7309,-3.7304,-3.7323,-3.7321,-3.7331,-3.7329,-3.7327,-3.7321,-3.7329,-3.7334,-3.7375,-3.7406,-3.7344,-3.7346,-3.7483,-3.7486,-3.7489,-3.7542,0,0,0,0,0,0,-3.7264,-3.7274,-3.7297,-3.7303,-3.7311,-3.737,-3.7325,-3.7323,-3.7336,-3.7332,-3.7339,-3.7338,-3.7328,-3.7371,-3.7377,-3.7408,-3.7349,-3.748,-3.7484,-3.7488,-3.7537,-3.7547,-3.7555,0,0,0,0,0,-3.7262,-3.731,-3.7298,-3.7305,-3.7339,-3.7371,-3.7376,-3.7364,-3.7339,-3.7361,-3.736,-3.7338,-3.7401,-3.7375,-3.7382,-3.7415,-3.7478,-3.7483,-3.7488,-3.7534,-3.7545,-3.7554,0,0,0,0,0,0,-3.7306,-3.731,-3.7297,-3.7349,-3.7361,-3.7365,-3.7392,-3.7376,-3.7393,-3.7388,-3.7372,-3.7374,-3.7418,-3.742,-3.7391,-3.747,-3.7435,-3.7442,-3.7468,-3.7478,-3.7487,-3.7485,-3.7351,0,0,0,0,0,-3.7322,-3.7349,-3.7351,-3.7397,-3.7403,-3.7397,-3.7411,-3.74,-3.7411,-3.7415,-3.7416,-3.7427,-3.7449,-3.7463,-3.7484,-3.7537,-3.7538,-3.7563,-3.7571,-3.7578,-3.7584,-3.7613,-3.7624,-3.7506,-3.7506,-3.7506,0,0,-3.7355,-3.7361,-3.7379,-3.7406,-3.7413,-3.7441,-3.7401,-3.7432,-3.7452,-3.7419,-3.7459,-3.746,-3.747,-3.7518,-3.7539,-3.7521,-3.7617,-3.7585,-3.759,-3.7592,-3.7619,-3.763,-3.764,-3.751,-3.7509,-3.7509,0,0,-3.7429,-3.7437,-3.7475,-3.7484,-3.7496,-3.7492,-3.7501,-3.7508,-3.7508,-3.7547,-3.7523,-3.7546,-3.7584,-3.7593,-3.7602,-3.7679,-3.7659,-3.7686,-3.773,-3.7758,-3.7767,-3.7775,-3.7803,-3.7813,-3.7691,-3.7692,-3.7692,0,-3.7468,-3.751,-3.7497,-3.753,-3.7542,-3.7515,-3.7553,-3.7562,-3.758,-3.7588,-3.7568,-3.7616,-3.7621,-3.767,-3.7689,-3.7697,-3.7706,-3.7685,-3.7767,-3.7775,-3.7783,-3.7808,-3.7819,-3.7695,-3.7694,-3.7694,-3.7694,0,-3.7557,-3.7586,-3.7616,-3.7635,-3.765,-3.7686,-3.7677,-3.7694,-3.7683,-3.768,-3.772,-3.7725,-3.7745,-3.7756,-3.7745,-3.7804,-3.7792,-3.777,-3.7734,-3.7797,-3.7821,-3.7831,-3.7699,-3.7698,-3.7697,-3.7696,0,0,-3.766,-3.7672,-3.7683,-3.7691,-3.7702,-3.7724,-3.7758,-3.7779,-3.7794,-3.7806,-3.7834,-3.7867,-3.7847,-3.7857,-3.7846,-3.787,-3.7931,-3.7845,-3.7845,-3.7861,-3.7996,-3.8013,-3.8024,-3.7918,-3.792,-3.7921,-3.7995,0,-3.7734,-3.7794,-3.7783,-3.784,-3.7866,-3.7841,-3.787,-3.788,-3.7878,-3.7899,-3.7896,-3.792,-3.7892,-3.7898,-3.7921,-3.7919,-3.7958,-3.7913,-3.7943,-3.7944,-3.7941,-3.8037,-3.8055,-3.8124,-3.8004,-3.8006,-3.8007,0,-3.7828,-3.7846,-3.7906,-3.7913,-3.7924,-3.795,-3.7969,-3.799,-3.7999,-3.7996,-3.8008,-3.7993,-3.8025,-3.7989,-3.8033,-3.8003,-3.8014,-3.8015,-3.8017,-3.8019,-3.7979,-3.8042,-3.8146,-3.8156,-3.8022,-3.802,-3.8019,0,-3.7897,-3.7936,-3.7977,-3.7985,-3.7994,-3.8013,-3.8018,-3.8025,-3.8039,-3.8054,-3.8063,-3.8082,-3.8092,-3.8106,-3.8096,-3.8071,-3.8142,-3.8105,-3.814,-3.814,-3.8156,-3.8155,-3.8263,-3.8163,-3.8163,-3.8163,-3.8162,0,-3.7981,-3.8019,-3.8008,-3.8033,-3.8075,-3.8061,-3.8102,-3.8104,-3.8111,-3.8135,-3.8114,-3.8137,-3.8122,-3.8143,-3.8135,-3.8172,-3.8177,-3.8175,-3.8173,-3.8177,-3.8178,-3.8184,-3.8179,-3.8165,-3.8165,-3.8164,-3.8164,0,-3.8065,-3.806,-3.8103,-3.8108,-3.811,-3.814,-3.8144,-3.8167,-3.8164,-3.8195,-3.8201,-3.8196,-3.822,-3.8211,-3.8237,-3.8231,-3.8279,-3.827,-3.8276,-3.8274,-3.831,-3.8306,-3.8426,-3.8441,-3.8331,-3.8332,-3.8333,0,-3.8119,-3.8148,-3.8156,-3.8172,-3.8178,-3.8203,-3.8216,-3.8204,-3.8219,-3.8232,-3.8254,-3.8276,-3.8294,-3.8333,-3.8331,-3.835,-3.8341,-3.8382,-3.8344,-3.8348,-3.8342,-3.8341,-3.8343,-3.839,-3.8391,-3.8392,-3.8393,0,-3.8215,-3.8211,-3.8232,-3.8252,-3.827,-3.8285,-3.8298,-3.8311,-3.8299,-3.8317,-3.8342,-3.8356,-3.8382,-3.8405,-3.8422,-3.8425,-3.8407,-3.8405,-3.8414,-3.8419,-3.8421,-3.8421,-3.8297,-3.8402,-3.8401,-3.84,-3.84,-3.84,-3.8285,-3.831,-3.832,-3.8344,-3.8353,-3.8365,-3.8387,-3.8387,-3.8408,-3.8429,-3.842,-3.8449,-3.8458,-3.8479,-3.8485,-3.8507,-3.8491,-3.8504,-3.8507,-3.8511,-3.8516,-3.8418,-3.851,-3.8509,-3.8509,-3.8509,-3.8509,0,-3.838,-3.8385,-3.8408,-3.8428,-3.8446,-3.8428,-3.8442,-3.8459,-3.8485,-3.8495,-3.8512,-3.8541,-3.8562,-3.8562,-3.8582,-3.8599,-3.8591,-3.8605,-3.8603,-3.8604,-3.8529,-3.8519,-3.8611,-3.8611,-3.8611,-3.8611,-3.8611,-3.8611,-3.8432,-3.8472,-3.8469,-3.8513,-3.8517,-3.8547,-3.8556,-3.8567,-3.8575,-3.8608,-3.8626,-3.8626,-3.8632,-3.8652,-3.867,-3.867,-3.8678,-3.8695,-3.8691,-3.862,-3.861,-3.86,-3.8591,-3.8697,-3.8697,-3.8765,-3.8765,-3.8766]}]]